MOLNIYA 3-39 (Decayed 2009-07-08) 1 20813U 90084A 09189.90460253 .99999999 89548-5 87463-3 0 3199 2 20813 062.3518 044.6063 0346089 278.5755 153.1381 15.91472257138527 MOLNIYA 1-80 1 21118U 91012A 10210.86684493 .00000000 00000-0 10000-3 0 8485 2 21118 061.6942 209.4532 7201964 257.9345 020.0586 02.00757083142529 MOLNIYA 3-40 1 21196U 91022A 10211.83522127 .00000000 00000-0 10000-3 0 2300 2 21196 061.5437 191.8757 7204451 260.6985 018.8150 02.00480450141848 MOLNIYA 1-81 1 21426U 91043A 10211.96264463 .00000000 00000-0 10000-3 0 3298 2 21426 061.9288 183.1460 7144087 269.4982 015.9504 02.00628100140104 MOLNIYA 3-41 1 21706U 91065A 10210.40757528 +.00005318 +00000-0 +69322-3 0 06549 2 21706 062.8223 351.4493 7500540 281.1718 010.2744 02.03322975138248 MOLNIYA 1-83 (Decayed 2007-07-01) 1 21897U 92011A 07182.54228483 .99999999 39507-5 71364-3 0 6569 2 21897 062.0262 125.4048 0862131 260.6337 095.0674 14.64030781113010 MOLNIYA 1-84 (Decayed 2008-04-04) 1 22068U 92050A 08090.07126951 .00081002 20360-6 10000-3 0 2504 2 22068 061.4234 120.4751 4232825 269.9804 042.9330 07.21307907115547 MOLNIYA 3-42 1 22178U 92067A 10210.82693090 +.00000013 +00000-0 -41750-2 0 08404 2 22178 061.9262 134.9802 7302907 267.8026 015.2774 02.00610737130358 MOLNIYA 3-43 (Decayed 2008-11-08) 1 22255U 92085A 08313.00370478 .39506582 68961-5 10000-3 0 2321 2 22255 063.0849 336.0925 0327870 259.1187 097.3762 15.94406168118217 MOLNIYA 1-86 1 22671U 93035A 10210.75598549 .00000804 00000-0 42459-4 0 3167 2 22671 062.1859 077.6307 7458904 275.0700 011.9008 02.03261934126298 MOLNIYA 3-45 1 22729U 93049A 10207.24747588 .00001481 00000-0 00000+0 0 581 2 22729 061.9696 223.6231 7263241 257.3746 019.7260 02.00455320124350 MOLNIYA 1-87 1 22949U 93079A 10210.76366868 -.00001096 00000-0 10596-2 0 5141 2 22949 063.3276 000.6545 7370496 249.4608 022.7477 02.00553200121701 MOLNIYA 3-46 (Decayed 2009-02-10) 1 23211U 94051A 09041.46604329 .99999999 60629-5 70923-3 0 6302 2 23211 062.1686 108.0618 0618716 264.3573 240.5314 15.21977803107058 MOLNIYA 1-88 1 23420U 94081A 10209.85384033 -.00001294 +00000-0 +57324-3 0 01172 2 23420 061.9418 173.0743 7302255 267.2284 015.4613 02.02251011114620 MOLNIYA 3-47 1 23642U 95042A 10210.38509630 -.00000238 +00000-0 +97850-4 0 06034 2 23642 063.0188 337.0204 7435295 254.7039 019.3669 02.00672659109718 MOLNIYA 1-89 1 24273U 96045A 10211.15668690 .00001217 00000-0 36807-3 0 6926 2 24273 062.5800 227.0086 6944932 260.3691 021.4903 02.70058496105220 MOLNIYA 3-48 (Decayed 2007-10-18) 1 24640U 96060A 07291.13395417 .99999999 83187-5 52459-3 0 1139 2 24640 063.3472 327.2473 0128626 257.0956 102.6261 16.43397936 81211 MOLNIYA 1-90 1 24960U 97054A 10211.51876503 .00000410 00000-0 10114-2 0 8382 2 24960 063.5034 026.1218 7455320 253.2213 019.8114 02.00624188 94174 MOLNIYA 3-49 1 25379U 98040A 10210.31670074 .00106511 -85854-5 82563-4 0 1720 2 25379 063.3078 346.0320 7323032 254.5620 020.6785 02.30246651 88628 MOLNIYA 1-91 1 25485U 98054A 10211.83206186 .00000000 00000-0 10000-3 0 9915 2 25485 063.8008 135.8957 6945991 256.9101 023.2004 02.00615255 86704 MOLNIYA 3-50 1 25847U 99036A 10210.08888694 +.00000243 +00000-0 +10000-3 0 08844 2 25847 063.5511 223.7098 6866239 264.2019 020.4579 02.00569839081013 MOLNIYA 3-51 1 26867U 01030A 10210.85910167 -.00000323 +00000-0 +00000-0 0 02187 2 26867 064.0937 156.6366 7011241 261.7929 017.3182 02.00597227066137 MOLNIYA 1-92 1 27707U 03011A 10210.92845539 +.00000583 +00000-0 +10000-3 0 06376 2 27707 064.7800 161.8438 7015625 256.8499 020.2186 02.00632206053671 MOLNIYA 3-53 1 27834U 03029A 10210.36485013 +.00000236 +00000-0 +00000-0 0 04550 2 27834 064.7976 161.8704 7008447 257.3402 347.6471 02.00609175052082 MOLNIYA 1-93 1 28163U 04005A 10210.74285243 +.00000379 +00000-0 +10000-3 0 02781 2 28163 064.8600 238.9181 7000104 269.8450 092.1036 02.00639580047212